2020-063G (46395 NORAD) Tracking and Keplerian Element Data

This shows tracking and keplerian element data for the satellite.

Feedback or suggestion? Click here.




ElementValue
Catalog46395
Name2020-063G
Epoch Orbit7588
Epoch Day359.74128423
Epoch Year2021
RAAN3.7629
Inclination50.1897
Eccentricity1E-06
Argument of Perigee274.3142
Mean Anonmoly87.3194
Mean Motion16.53340465
Decay Rate0.11326055
L11 46395U 20063G 21359.74128423 .11326055 12658-4 76402-4 0 9991
L22 46395 50.1897 3.7629 0000010 274.3142 87.3194 16.53340465 75887



Live tracking and technical data element details for 2020-063G (NORAD 46395). 2020-063G can be tracked NOW for your location showing map with azimuth and elevation plus other details from your city location.







IsCatalogInMostPopularTable: catalog: 46395, numindb: 207
Update: records affected: 1



GetName: 46395 2020-063G

Hit Count: updated at: Sun, 14 Apr 2024 23:43:32 GMT